[[{"header":{"parameterUnit":"m.s-1","parameterCategory":2,"la1":30.2992,"la2":30.254,"lo1":-89.0895,"lo2":-89.0443,"dy":0.0025,"dx":0.0025,"nx":19,"ny":19,"refTime":"2026-03-28T09:00:00:Z","depth":"0","parameterNumber":2,"parameterNumberName":"U-component_of_CURRENTS"},"data":[0,0,0,0.1638,0.1639,0.1632,0.1631,0.1628,0.1629,0,0,0,0,0,0,0,0,0,0,0,0.163,0.1631,0.1638,0.1639,0.1632,0.1631,0.1628,0.1629,0,0,0,0,0,0,0,0,0,0,0,0.163,0.1631,0.1631,0.1639,0.1632,0.1631,0.1628,0.1626,0,0,0,0,0,0,0,0,0,0,0.163,0.162,0.163,0.1631,0.1639,0.1632,0.1631,0.1626,0.1626,0.1641,0,0.165,0,0.1656,0.1631,0.1631,0,0,0,0.1615,0.1619,0.1635,0.1631,0.1639,0.1632,0.1628,0.1626,0.1627,0.1642,0.165,0.165,0.1655,0.1631,0.1631,0.172,0.172,0,0,0.1615,0.1609,0.1635,0.1636,0.1651,0.1629,0.1628,0.1626,0.1623,0.165,0.165,0.1655,0.1631,0.1631,0.1719,0.172,0,0,0,0.1632,0.161,0.1624,0.1636,0.1644,0.1629,0.1628,0.1622,0.1632,0.165,0.1655,0.1631,0.1632,0.1718,0.1719,0.1786,0,0,0,0.1631,0.1622,0.1625,0.1618,0.1644,0.163,0.1624,0.1631,0.1632,0.1655,0.1631,0.1632,0.1717,0.1719,0.1782,0.1819,0,0,0,0.1628,0.1621,0.1628,0.1619,0.163,0.1631,0.1639,0.1631,0.1637,0.1631,0.1632,0.1717,0.1719,0.1779,0.1814,0.1871,0,0,0,0.1611,0.1653,0.1628,0.1662,0.163,0.1664,0.1638,0.1651,0.1649,0.1632,0.1718,0.1719,0.1778,0.181,0.1868,0.1867,0.1884,0,0,0.1664,0.1658,0.1678,0.1658,0.1698,0.1662,0.171,0.1695,0.1682,0.1712,0.1714,0.1784,0.1813,0.1871,0.1968,0.1982,0,0,0,0.1695,0.1707,0.1712,0.1723,0.1734,0.1752,0.1736,0.1745,0.1772,0.1695,0.18,0.1818,0.1851,0.1844,0.1855,0.1848,0.1727,0.1727,0.1727,0.1721,0.1733,0.1765,0.1782,0.1801,0.1818,0.1843,0.1858,0.1827,0.1861,0.1884,0.1991,0.1984,0.1992,0.1985,0.1893,0.1894,0.1894,0.1894,0.1771,0.179,0.1799,0.184,0.1864,0.1901,0.1953,0.1954,0.202,0.1969,0.1999,0.1929,0.2009,0.1997,0.1899,0.1898,0.1897,0.1897,0.1897,0.1768,0.1793,0.1806,0.1861,0.1913,0.195,0.2027,0.2075,0.2087,0.2129,0.2114,0.2112,0.2091,0.2141,0.2142,0.2142,0.2142,0.2143,0.2143,0.1767,0.1793,0.1825,0.1886,0.191,0.1981,0.208,0.2126,0.2195,0.2201,0.2201,0.2136,0.2066,0.2044,0.215,0.2148,0.2148,0.2147,0.2147,0.1782,0.1788,0.184,0.1864,0.1929,0.1966,0.2077,0.2187,0.2257,0.2286,0.2272,0.2238,0.2219,0.2208,0.219,0.2328,0.2328,0.2328,0.2328,0.1772,0.179,0.1829,0.1859,0.1909,0.1954,0.201,0.2123,0.2264,0.2318,0.2344,0.228,0.2273,0.2252,0.2241,0.2221,0.2364,0.2364,0.2364,0.1761,0.1789,0.1796,0.1842,0.188,0.1916,0.1932,0.2031,0.2253,0.2364,0.2342,0.234,0.2241,0.223,0.2187,0.2172,0.2134,0,0]},{"header":{"parameterUnit":"m.s-1","parameterCategory":2,"la1":30.2992,"la2":30.254,"lo1":-89.0895,"lo2":-89.0443,"dy":0.0025,"dx":0.0025,"nx":19,"ny":19,"refTime":"2026-03-28T09:00:00:Z","depth":"0","parameterNumber":3,"parameterNumberName":"V-component_of_CURRENTS"},"data":[0,0,0,-0.0614,-0.0615,-0.0667,-0.0667,-0.074,-0.0741,0,0,0,0,0,0,0,0,0,0,0,-0.0573,-0.0573,-0.0613,-0.0615,-0.0667,-0.0667,-0.074,-0.0741,0,0,0,0,0,0,0,0,0,0,0,-0.0573,-0.0573,-0.0574,-0.0616,-0.0667,-0.0667,-0.074,-0.0695,0,0,0,0,0,0,0,0,0,0,-0.0643,-0.0629,-0.0573,-0.0574,-0.0616,-0.0667,-0.0667,-0.0693,-0.0698,-0.0724,0,-0.0727,0,-0.0754,-0.0747,-0.0748,0,0,0,-0.0599,-0.0625,-0.0627,-0.0574,-0.0617,-0.0667,-0.0639,-0.0695,-0.0701,-0.0731,-0.0728,-0.0731,-0.0755,-0.0748,-0.0749,-0.0798,-0.0798,0,0,-0.0597,-0.0597,-0.0623,-0.063,-0.0625,-0.0638,-0.0641,-0.0699,-0.0711,-0.0728,-0.0734,-0.0756,-0.0749,-0.075,-0.0798,-0.0798,0,0,0,-0.0599,-0.0595,-0.0595,-0.0627,-0.0646,-0.0639,-0.0643,-0.0707,-0.0704,-0.0735,-0.0757,-0.0749,-0.0751,-0.0798,-0.0798,-0.0766,0,0,0,-0.0597,-0.0598,-0.0594,-0.0597,-0.0644,-0.0684,-0.0651,-0.0698,-0.0707,-0.0757,-0.0749,-0.0751,-0.0799,-0.0798,-0.0767,-0.0738,0,0,0,-0.0572,-0.0597,-0.0597,-0.0596,-0.0627,-0.0683,-0.0682,-0.07,-0.0722,-0.0748,-0.0752,-0.0799,-0.0798,-0.0768,-0.0741,-0.069,0,0,0,-0.0578,-0.0609,-0.0597,-0.0629,-0.0627,-0.0637,-0.0682,-0.0704,-0.0721,-0.075,-0.0799,-0.0798,-0.0769,-0.0742,-0.0692,-0.0631,-0.0617,0,0,-0.0624,-0.0615,-0.0629,-0.062,-0.0621,-0.063,-0.0646,-0.0692,-0.0724,-0.0778,-0.0779,-0.0767,-0.0741,-0.069,-0.0606,-0.0591,0,0,0,-0.0648,-0.0645,-0.0643,-0.0641,-0.064,-0.063,-0.0668,-0.0685,-0.0724,-0.0737,-0.0767,-0.0751,-0.072,-0.0688,-0.0677,-0.083,-0.0796,-0.0796,-0.0796,-0.0641,-0.0643,-0.0645,-0.0634,-0.0634,-0.0637,-0.0636,-0.0666,-0.0706,-0.0714,-0.0725,-0.0664,-0.0631,-0.0622,-0.0782,-0.0734,-0.0734,-0.0734,-0.0734,-0.064,-0.0627,-0.0621,-0.0628,-0.0604,-0.0605,-0.0621,-0.064,-0.0646,-0.0693,-0.0665,-0.0657,-0.0608,-0.0782,-0.0732,-0.0732,-0.0732,-0.0733,-0.0733,-0.0599,-0.06,-0.0605,-0.0591,-0.0568,-0.0567,-0.0515,-0.0554,-0.0601,-0.0587,-0.054,-0.054,-0.069,-0.057,-0.0569,-0.0569,-0.0569,-0.0569,-0.0568,-0.0545,-0.056,-0.0542,-0.0539,-0.0506,-0.0458,-0.044,-0.0417,-0.0434,-0.0483,-0.0482,-0.0686,-0.0613,-0.0616,-0.0563,-0.0564,-0.0565,-0.0565,-0.0565,-0.0501,-0.0498,-0.0473,-0.0446,-0.0366,-0.0273,-0.0268,-0.022,-0.023,-0.0232,-0.0548,-0.0424,-0.042,-0.0429,-0.0427,-0.0328,-0.0328,-0.0328,-0.0328,-0.0441,-0.045,-0.0381,-0.0321,-0.0226,-0.0175,-0.0057,-0.0085,-0.0292,-0.0441,-0.054,-0.0605,-0.0608,-0.0621,-0.0626,-0.0631,-0.0586,-0.0587,-0.0587,-0.038,-0.0372,-0.0306,-0.0265,-0.0156,-0.005,0.0028,-0.0068,-0.0403,-0.0619,-0.0769,-0.0758,-0.0879,-0.0871,-0.0914,-0.0909,-0.0925,0,0]}],[{"header":{"parameterUnit":"m.s-1","parameterCategory":2,"la1":30.2992,"la2":30.254,"lo1":-89.0895,"lo2":-89.0443,"dy":0.0025,"dx":0.0025,"nx":19,"ny":19,"refTime":"2026-03-28T09:00:00:Z","depth":"2","parameterNumber":2,"parameterNumberName":"U-component_of_CURRENTS"},"data":[0,0,0,0.1643,0.1643,0.1636,0.1636,0.1633,0.1633,0,0,0,0,0,0,0,0,0,0,0,0.1636,0.1636,0.1643,0.1643,0.1636,0.1636,0.1633,0.1633,0,0,0,0,0,0,0,0,0,0,0,0.1635,0.1636,0.1636,0.1643,0.1636,0.1636,0.1633,0.1631,0,0,0,0,0,0,0,0,0,0,0.1635,0.1625,0.1636,0.1636,0.1644,0.1636,0.1636,0.1631,0.1631,0.1646,0,0.1655,0,0.166,0.1636,0.1636,0,0,0,0.162,0.1625,0.1641,0.1636,0.1644,0.1636,0.1633,0.1631,0.1631,0.1647,0.1655,0.1655,0.166,0.1636,0.1636,0.1724,0.1725,0,0,0.162,0.1615,0.164,0.1641,0.1656,0.1633,0.1633,0.1631,0.1628,0.1655,0.1655,0.166,0.1636,0.1636,0.1724,0.1725,0,0,0,0.1637,0.1615,0.1629,0.1641,0.1648,0.1633,0.1633,0.1627,0.1637,0.1655,0.166,0.1636,0.1637,0.1723,0.1724,0.179,0,0,0,0.1636,0.1627,0.163,0.1624,0.1649,0.1635,0.1629,0.1636,0.1637,0.166,0.1636,0.1637,0.1722,0.1724,0.1787,0.1824,0,0,0,0.1633,0.1627,0.1634,0.1624,0.1635,0.1636,0.1643,0.1636,0.1642,0.1636,0.1637,0.1722,0.1723,0.1783,0.1818,0.1877,0,0,0,0.1616,0.1658,0.1633,0.1667,0.1635,0.1667,0.1643,0.1654,0.1653,0.1636,0.1722,0.1724,0.1782,0.1815,0.1873,0.182,0.1832,0,0,0.1669,0.1664,0.1683,0.1663,0.1701,0.1666,0.1712,0.1698,0.1686,0.1717,0.1719,0.1788,0.1818,0.1876,0.1919,0.1929,0,0,0,0.17,0.1712,0.1717,0.1726,0.1736,0.1754,0.1738,0.1748,0.1776,0.1699,0.1805,0.1822,0.1856,0.1816,0.1825,0.1732,0.1732,0.1732,0.1732,0.1727,0.1738,0.1769,0.1784,0.1803,0.1819,0.1845,0.1861,0.183,0.1864,0.1888,0.1995,0.1954,0.1959,0.1897,0.1897,0.1897,0.1897,0.1898,0.1777,0.1796,0.1804,0.1844,0.1867,0.1903,0.1955,0.1956,0.2024,0.1973,0.2003,0.1903,0.1972,0.1903,0.1902,0.1901,0.1901,0.19,0.19,0.1773,0.1798,0.1811,0.1866,0.1918,0.1954,0.2032,0.2079,0.2091,0.2133,0.2083,0.208,0.2033,0.2145,0.2146,0.2146,0.2146,0.2147,0.2147,0.1773,0.1799,0.1831,0.1891,0.1916,0.1987,0.2086,0.2132,0.2178,0.2166,0.2165,0.2078,0.207,0.2048,0.2154,0.2153,0.2152,0.2151,0.2151,0.1788,0.1794,0.1845,0.187,0.1934,0.1906,0.2062,0.2151,0.2232,0.2245,0.2182,0.2179,0.2155,0.2146,0.2127,0.2247,0.2247,0.2247,0.2247,0.1778,0.1796,0.1834,0.1864,0.1914,0.1874,0.1824,0.1791,0.1914,0.1905,0.1918,0.1814,0.182,0.177,0.177,0.1738,0.1757,0.1756,0.1755,0.1767,0.1794,0.1801,0.1847,0.1884,0.177,0.1555,0.1332,0.1448,0.1723,0.1707,0.2238,0.2121,0.2116,0.2064,0.2054,0.2015,0,0]},{"header":{"parameterUnit":"m.s-1","parameterCategory":2,"la1":30.2992,"la2":30.254,"lo1":-89.0895,"lo2":-89.0443,"dy":0.0025,"dx":0.0025,"nx":19,"ny":19,"refTime":"2026-03-28T09:00:00:Z","depth":"2","parameterNumber":3,"parameterNumberName":"V-component_of_CURRENTS"},"data":[0,0,0,-0.0573,-0.0574,-0.0625,-0.0625,-0.0696,-0.0697,0,0,0,0,0,0,0,0,0,0,0,-0.0533,-0.0534,-0.0573,-0.0574,-0.0625,-0.0625,-0.0696,-0.0697,0,0,0,0,0,0,0,0,0,0,0,-0.0533,-0.0533,-0.0534,-0.0575,-0.0625,-0.0625,-0.0696,-0.0652,0,0,0,0,0,0,0,0,0,0,-0.0601,-0.059,-0.0533,-0.0534,-0.0575,-0.0625,-0.0625,-0.065,-0.0655,-0.068,0,-0.0682,0,-0.0708,-0.0703,-0.0703,0,0,0,-0.056,-0.0586,-0.0585,-0.0534,-0.0576,-0.0625,-0.0598,-0.0653,-0.0658,-0.0686,-0.0683,-0.0686,-0.071,-0.0704,-0.0704,-0.075,-0.075,0,0,-0.0557,-0.0559,-0.0581,-0.0589,-0.0583,-0.0596,-0.06,-0.0656,-0.0668,-0.0683,-0.0689,-0.0711,-0.0704,-0.0705,-0.075,-0.075,0,0,0,-0.0559,-0.0557,-0.0555,-0.0585,-0.0604,-0.0598,-0.0602,-0.0665,-0.066,-0.069,-0.0712,-0.0705,-0.0706,-0.0751,-0.075,-0.0718,0,0,0,-0.0556,-0.0559,-0.0554,-0.0558,-0.0602,-0.0642,-0.061,-0.0655,-0.0664,-0.0711,-0.0705,-0.0707,-0.0751,-0.0751,-0.0719,-0.0693,0,0,0,-0.0532,-0.0558,-0.0557,-0.0557,-0.0587,-0.0641,-0.0639,-0.0657,-0.0678,-0.0704,-0.0707,-0.0751,-0.0751,-0.0721,-0.0695,-0.0645,0,0,0,-0.054,-0.057,-0.0557,-0.0588,-0.0586,-0.0592,-0.0639,-0.0658,-0.0674,-0.0705,-0.0751,-0.075,-0.0721,-0.0697,-0.0647,-0.0528,-0.0509,0,0,-0.0587,-0.0576,-0.0589,-0.058,-0.0575,-0.0584,-0.0597,-0.0644,-0.0677,-0.0731,-0.0732,-0.0719,-0.0695,-0.0646,-0.0502,-0.0483,0,0,0,-0.0609,-0.0605,-0.0601,-0.0596,-0.0591,-0.058,-0.0617,-0.0635,-0.0676,-0.069,-0.0719,-0.0704,-0.0674,-0.0607,-0.0592,-0.0748,-0.0748,-0.0748,-0.0748,-0.0603,-0.0602,-0.0602,-0.0586,-0.0583,-0.0583,-0.0583,-0.0616,-0.0655,-0.0665,-0.0678,-0.0618,-0.0547,-0.0534,-0.0686,-0.0685,-0.0685,-0.0685,-0.0685,-0.0602,-0.0588,-0.0579,-0.0584,-0.0557,-0.0555,-0.057,-0.059,-0.0599,-0.0646,-0.0618,-0.0577,-0.0516,-0.0683,-0.0683,-0.0683,-0.0684,-0.0684,-0.0684,-0.0562,-0.0563,-0.0567,-0.055,-0.0526,-0.0522,-0.0471,-0.0509,-0.0557,-0.0543,-0.0457,-0.0456,-0.0582,-0.0526,-0.0525,-0.0525,-0.0525,-0.0525,-0.0524,-0.0511,-0.0524,-0.0506,-0.0502,-0.0469,-0.0419,-0.04,-0.0377,-0.0368,-0.0396,-0.0395,-0.0563,-0.0569,-0.0572,-0.0519,-0.052,-0.0521,-0.0521,-0.0522,-0.0467,-0.0464,-0.0438,-0.0411,-0.0329,-0.0131,-0.0201,-0.0131,-0.0159,-0.0144,-0.0305,-0.0312,-0.0303,-0.0314,-0.0311,-0.0193,-0.0193,-0.0193,-0.0193,-0.0407,-0.0415,-0.0346,-0.0286,-0.019,-0.0,0.0261,0.0349,0.0222,0.0174,0.0158,0.0156,0.0134,0.0166,0.0143,0.0155,0.0394,0.0396,0.0397,-0.0346,-0.0338,-0.0272,-0.023,-0.012,0.023,0.0626,0.0768,0.0551,0.0424,0.0302,-0.0162,-0.0211,-0.0228,-0.0221,-0.024,-0.0238,0,0]}],[{"header":{"parameterUnit":"m.s-1","parameterCategory":2,"la1":30.2992,"la2":30.254,"lo1":-89.0895,"lo2":-89.0443,"dy":0.0025,"dx":0.0025,"nx":19,"ny":19,"refTime":"2026-03-28T09:00:00:Z","depth":"4","parameterNumber":2,"parameterNumberName":"U-component_of_CURRENTS"},"data":[0,0,0,0.0869,0.0871,0.0996,0.0997,0.1069,0.1069,0,0,0,0,0,0,0,0,0,0,0,0.0841,0.0841,0.0869,0.0871,0.0996,0.0997,0.1069,0.1069,0,0,0,0,0,0,0,0,0,0,0,0.084,0.0841,0.0842,0.0871,0.0996,0.0997,0.1069,0.1003,0,0,0,0,0,0,0,0,0,0,0.0895,0.0881,0.0841,0.0842,0.0872,0.0995,0.0997,0.1001,0.1007,0.0979,0,0.0996,0,0.1013,0.1069,0.107,0,0,0,0.0898,0.0876,0.0892,0.0842,0.0873,0.0995,0.0947,0.1005,0.1012,0.0986,0.0997,0.1,0.1014,0.107,0.107,0.1112,0.1113,0,0,0.0891,0.088,0.0888,0.0896,0.0899,0.0943,0.0951,0.1011,0.1022,0.0997,0.1002,0.1015,0.107,0.107,0.1112,0.1113,0,0,0,0.0853,0.0875,0.0893,0.0893,0.0911,0.0946,0.0955,0.1021,0.1022,0.1003,0.1016,0.107,0.107,0.1112,0.1112,0.1136,0,0,0,0.085,0.085,0.089,0.0887,0.091,0.098,0.0964,0.1019,0.1026,0.1016,0.107,0.107,0.1111,0.1112,0.1135,0.1143,0,0,0,0.0836,0.0849,0.0858,0.0885,0.0924,0.098,0.0988,0.1022,0.1031,0.107,0.107,0.1111,0.1112,0.1133,0.1141,0.1182,0,0,0,0.0827,0.0827,0.0859,0.0867,0.0922,0.097,0.0988,0.1051,0.1088,0.107,0.1111,0.1112,0.1133,0.1139,0.118,0.1016,0,0,0,0.0813,0.0826,0.0828,0.0857,0.089,0.0955,0.1008,0.1074,0.1091,0.1088,0.1091,0.1135,0.1141,0.1181,0.1078,0,0,0,0,0.0813,0.0822,0.0836,0.0869,0.0909,0.0988,0.105,0.1077,0.1138,0.1111,0.1149,0.1152,0.1177,0.1077,0.1117,0.1117,0.1117,0.1117,0.1117,0.0811,0.0824,0.0846,0.0884,0.0926,0.1018,0.1078,0.113,0.1136,0.1179,0.1183,0.1244,0.1139,0.1196,0.1196,0.1196,0.1196,0.1196,0.1196,0.0807,0.0817,0.0865,0.0893,0.0969,0.1032,0.1115,0.1156,0.1222,0.1214,0.1238,0.1122,0.1199,0.1198,0.1198,0.1198,0.1197,0.1197,0.1197,0.0802,0.0807,0.0841,0.0897,0.0979,0.1062,0.1132,0.1198,0.1252,0.1283,0.1201,0.127,0.1257,0.1312,0.1313,0.1313,0.1313,0.1313,0.1313,0.0782,0.081,0.0838,0.0902,0.0947,0.1032,0.1154,0.12,0.1274,0.1216,0.1308,0.1283,0.1279,0.1265,0.1317,0.1316,0.1316,0.1315,0.1315,0.0753,0.0782,0.08,0.0836,0.0919,0.096,0.1091,0.1147,0.1193,0.1182,0.1179,0.1185,0.1164,0.1164,0.1144,0.1163,0.1161,0.1159,0,0.0738,0.0751,0.0775,0.0797,0.0832,0.0912,0.0935,0.1012,0.1076,0.1033,0.1202,0.1196,0.1199,0.1175,0.1171,0.1146,0,0,0,0.0728,0.0734,0.0734,0.0759,0.0783,0.0837,0.0937,0.0929,0.1054,0.1052,0.1111,0.1123,0.1245,0.1327,0.1311,0.1306,0.1282,0,0]},{"header":{"parameterUnit":"m.s-1","parameterCategory":2,"la1":30.2992,"la2":30.254,"lo1":-89.0895,"lo2":-89.0443,"dy":0.0025,"dx":0.0025,"nx":19,"ny":19,"refTime":"2026-03-28T09:00:00:Z","depth":"4","parameterNumber":3,"parameterNumberName":"V-component_of_CURRENTS"},"data":[0,0,0,0.0466,0.0467,0.0427,0.0426,0.0398,0.0398,0,0,0,0,0,0,0,0,0,0,0,0.046,0.0461,0.0466,0.0468,0.0428,0.0426,0.0397,0.0398,0,0,0,0,0,0,0,0,0,0,0,0.046,0.0461,0.0462,0.0468,0.0428,0.0426,0.0397,0.0404,0,0,0,0,0,0,0,0,0,0,0.0433,0.0447,0.046,0.0462,0.0468,0.0428,0.0426,0.0404,0.0404,0.0445,0,0.0478,0,0.0483,0.0404,0.0404,0,0,0,0.0394,0.0446,0.046,0.0462,0.0469,0.0428,0.0425,0.0403,0.0404,0.0447,0.0478,0.0477,0.0483,0.0404,0.0405,0.0471,0.0471,0,0,0.0396,0.0419,0.046,0.0462,0.0512,0.0427,0.0425,0.0402,0.0414,0.0478,0.0477,0.0482,0.0405,0.0405,0.0471,0.0471,0,0,0,0.0452,0.0421,0.0431,0.0463,0.0479,0.0427,0.0425,0.0412,0.0425,0.0477,0.0482,0.0405,0.0406,0.047,0.0471,0.054,0,0,0,0.045,0.046,0.0434,0.0441,0.0481,0.0445,0.0435,0.0424,0.0423,0.0482,0.0405,0.0407,0.047,0.047,0.0537,0.0571,0,0,0,0.0452,0.0459,0.0475,0.0444,0.0465,0.0445,0.045,0.0421,0.0431,0.0404,0.0407,0.047,0.047,0.0535,0.0567,0.0541,0,0,0,0.0443,0.0509,0.0476,0.0541,0.0466,0.0481,0.045,0.0425,0.0402,0.0406,0.047,0.0471,0.0535,0.0565,0.054,0.0521,0,0,0,0.0522,0.0519,0.0553,0.0525,0.056,0.0478,0.0501,0.0449,0.0421,0.0467,0.0467,0.0538,0.0567,0.0541,0.0537,0,0,0,0,0.0574,0.0594,0.0599,0.0613,0.0605,0.0574,0.0521,0.0503,0.0484,0.0428,0.0524,0.054,0.0521,0.0506,0.0472,0.0472,0.0472,0.0472,0.0472,0.0647,0.0642,0.0683,0.0673,0.0679,0.0631,0.0606,0.0572,0.0549,0.0539,0.0586,0.0602,0.0589,0.0571,0.0572,0.0572,0.0572,0.0572,0.0573,0.0724,0.0745,0.0729,0.0774,0.075,0.0765,0.0721,0.068,0.066,0.0634,0.0611,0.0569,0.0579,0.0578,0.0577,0.0576,0.0576,0.0575,0.0575,0.0756,0.077,0.0799,0.0841,0.0867,0.0847,0.0845,0.0799,0.0725,0.0715,0.0639,0.0628,0.063,0.0681,0.0681,0.0681,0.0682,0.0682,0.0682,0.078,0.0807,0.0861,0.0908,0.094,0.0956,0.0913,0.0865,0.078,0.0709,0.0716,0.0637,0.0634,0.0634,0.0682,0.0682,0.0682,0.0682,0.0682,0.0819,0.0846,0.0914,0.096,0.1015,0.1011,0.0987,0.086,0.0794,0.0712,0.0683,0.0682,0.0644,0.0639,0.0639,0.069,0.069,0.069,0,0.0839,0.0858,0.0939,0.1001,0.1029,0.1032,0.0944,0.0872,0.0758,0.075,0.0776,0.0749,0.0746,0.0708,0.0704,0.0707,0,0,0,0.0849,0.0874,0.0925,0.0996,0.1028,0.0952,0.0912,0.0858,0.0794,0.0714,0.0688,0.0688,0.0718,0.0685,0.0623,0.0619,0.0616,0,0]}]]